This demonstration page uses our WeatherBlox Daily Observations layout. Learn more.

Left ArrowRight Arrow

38.80484, -77.04692

Hourly Observations for November 28, 2015

Temp ( °F °C ) Dew Point ( °F °C ) Humidity (%) Winds ( mph kmh ) Pressure ( in mb ) Visibility ( mi km ) Precip ( " mm )
12:52 am 00:52 Cloudy 53 11.7 49 9.4 86 86 SSW 6 9 30.27 1025 10 16 0.00 0.00
1:52 am 01:52 Mostly Cloudy 51 10.6 48 8.9 89 89 SW 5 7 30.25 1025 10 16 0.00 0.00
2:52 am 02:52 Mostly Cloudy 51 10.6 48 8.9 89 89 Calm 30.25 1024 10 16 0.00 0.00
3:52 am 03:52 Mostly Cloudy 49 9.4 47 8.3 93 93 S 5 7 30.24 1024 10 16 0.00 0.00
4:52 am 04:52 Cloudy 50 10 48 8.9 93 93 SW 3 6 30.23 1024 10 16 0.00 0.00
5:52 am 05:52 Cloudy 51 10.6 48 8.9 89 89 S 5 7 30.22 1023 10 16 0.00 0.00
6:52 am 06:52 Mostly Cloudy 50 10 48 8.9 93 93 SSW 3 6 30.23 1024 10 16 0.00 0.00
7:52 am 07:52 Cloudy 50 10 48 8.9 93 93 S 3 6 30.22 1024 10 16 0.00 0.00
8:52 am 08:52 Cloudy 51 10.6 49 9.4 92 92 S 7 11 30.22 1023 10 16 0.00 0.00
9:52 am 09:52 Cloudy 53 11.7 50 10 89 89 S 7 11 30.23 1024 10 16 0.00 0.00
10:52 am 10:52 Mostly Cloudy 55 12.8 51 10.6 87 87 SSE 5 7 30.20 1023 10 16 0.00 0.00
11:52 am 11:52 Cloudy 60 15.6 51 10.6 72 72 S 5 7 30.18 1022 10 16 0.00 0.00
12:52 pm 12:52 Cloudy 61 16.1 52 11.1 72 72 S 6 9 30.16 1022 10 16 0.00 0.00
1:52 pm 13:52 Cloudy 61 16.1 51 10.6 70 70 S 7 11 30.15 1021 10 16 0.00 0.00
2:52 pm 14:52 Cloudy 63 17.2 52 11.1 68 68 S 7 11 30.14 1021 10 16 0.00 0.00
3:52 pm 15:52 Cloudy 62 16.7 52 11.1 70 70 S 6 9 30.15 1021 10 16 0.00 0.00
4:52 pm 16:52 Cloudy 59 15 50 10 72 72 S 3 6 30.14 1021 10 16 0.00 0.00
5:52 pm 17:52 Cloudy 59 15 51 10.6 75 75 Calm 30.14 1021 10 16 0.00 0.00
6:52 pm 18:52 Cloudy 61 16.1 52 11.1 72 72 N 6 9 30.14 1021 10 16 0.00 0.00
7:52 pm 19:52 Cloudy with Light Rain 60 15.6 52 11.1 75 75 SSE 3 6 30.15 1021 10 16 0.00 0.03
8:52 pm 20:52 Cloudy 60 15.6 52 11.1 75 75 S 5 7 30.16 1021 10 16 0.00 0.03
9:52 pm 21:52 Cloudy 58 14.4 52 11.1 81 81 S 3 6 30.15 1021 10 16 0.00 0.00
10:52 pm 22:52 Cloudy with Light Rain 54 12.2 51 10.6 90 90 NE 5 7 30.15 1021 10 16 0.00 0.03
11:52 pm 23:52 Cloudy 59 15 54 12.2 83 83 NNE 10 17 30.16 1021 10 16 0.00 0.03

Powered by AerisWeather